logo tempoitalia

Diretta Meteo Washington-Daviess County, Stati Uniti (USA)lunedì 31 agosto ore 02:35

Mappa
Sereno 23 °C Sereno 24 Ore: T.min 16 T.max 33
Ponente Sud Km/h 7.4 Punto di rugiada: 20 °C Umidità: 83% Visibilità: 10 Km
Il sole sorge alle: 07:17 Il sole tramonta alle: 20:20
31 Agosto 2026 02:35 tempo osservato: Sereno Sereno 23 83 1017 vento: Nord S 7.4
31 Agosto 2026 02:15 tempo osservato: Sereno Sereno 23 83 1017 vento: Nord S 9.3
31 Agosto 2026 01:55 tempo osservato: Sereno Sereno 22 88 1017 vento: Nord S 7.4
31 Agosto 2026 01:35 tempo osservato: Sereno Sereno 22 88 1018 vento: Nord N 5.5
31 Agosto 2026 01:15 tempo osservato: Sereno Sereno 22 88 1018 vento: Nord N 5.5
31 Agosto 2026 00:55 tempo osservato: Sereno Sereno 22 88 1017 vento: Nord S/SE 7.4
31 Agosto 2026 00:35 tempo osservato: Sereno Sereno 22 88 1017 vento: Nord N 5.5
31 Agosto 2026 00:15 tempo osservato: Sereno Sereno 22 88 1017 vento: Nord N 5.5
30 Agosto 2026 23:55 tempo osservato: Sereno Sereno 22 88 1017 vento: Nord N 5.5
30 Agosto 2026 23:35 tempo osservato: Sereno Sereno 22 88 1017 vento: Nord N 0
30 Agosto 2026 23:15 tempo osservato: Sereno Sereno 21 94 1017 vento: Nord N 0
30 Agosto 2026 22:55 tempo osservato: Sereno Sereno 21 88 1017 vento: Nord N 0
30 Agosto 2026 22:35 tempo osservato: Sereno Sereno 22 88 1017 vento: Nord N 0
30 Agosto 2026 22:15 tempo osservato: Sereno Sereno 23 83 1017 vento: Nord N 0
30 Agosto 2026 21:55 tempo osservato: Sereno Sereno 22 88 1017 vento: Nord N 0
30 Agosto 2026 21:35 tempo osservato: Sereno Sereno 23 83 1017 vento: Nord N 5.5
30 Agosto 2026 21:15 tempo osservato: Sereno Sereno 23 83 1017 vento: Nord N 0
30 Agosto 2026 20:55 tempo osservato: Sereno Sereno 25 73 1017 vento: Nord N 0
30 Agosto 2026 20:35 tempo osservato: Sereno Sereno 25 73 1016 vento: Nord N 0
30 Agosto 2026 20:15 tempo osservato: Sereno Sereno 27 61 1016 vento: Nord N 0
30 Agosto 2026 19:55 tempo osservato: Sereno Sereno 30 48 1016 vento: Nord N 5.5
30 Agosto 2026 19:35 tempo osservato: Sereno Sereno 31 45 1017 vento: Nord SO 7.4
30 Agosto 2026 19:15 tempo osservato: Sereno Sereno 32 40 1017 vento: Nord SO 11.1
30 Agosto 2026 18:55 tempo osservato: Sereno Sereno 32 40 1017 vento: Nord SO 11.1
30 Agosto 2026 18:35 tempo osservato: Sereno Sereno 33 38 1017 vento: Nord S/SO 11.1
30 Agosto 2026 18:15 tempo osservato: Sereno Sereno 33 38 1017 vento: Nord S/SO 13
30 Agosto 2026 17:55 tempo osservato: Sereno Sereno 33 38 1017 vento: Nord S/SO 14.8
30 Agosto 2026 17:35 tempo osservato: Sereno Sereno 33 38 1017 vento: Nord S/SO 11.1
30 Agosto 2026 17:15 tempo osservato: Nuvoloso Nuvoloso 33 38 1017 vento: Nord S 14.8
30 Agosto 2026 16:55 tempo osservato: Nuvoloso Nuvoloso 33 41 1017 vento: Nord SO 14.8
30 Agosto 2026 16:35 tempo osservato: Nuvoloso Nuvoloso 33 38 1017 vento: Nord S 13
30 Agosto 2026 16:15 tempo osservato: Sereno Sereno 33 38 1017 vento: Nord S/SO 13
30 Agosto 2026 15:55 tempo osservato: Sereno Sereno 33 38 1018 vento: Nord S/SO 16.7
30 Agosto 2026 15:35 tempo osservato: Sereno Sereno 33 38 1018 vento: Nord S 11.1
30 Agosto 2026 15:15 tempo osservato: Sereno Sereno 33 38 1018 vento: Nord S/SO 7.4
30 Agosto 2026 14:55 tempo osservato: Sereno Sereno 33 41 1018 vento: Nord S/SO 16.7
30 Agosto 2026 14:35 tempo osservato: Sereno Sereno 33 43 1018 vento: Nord S/SO 13
30 Agosto 2026 14:15 tempo osservato: Sereno Sereno 32 49 1019 vento: Nord S/SO 9.3
30 Agosto 2026 13:55 tempo osservato: Nuvoloso Nuvoloso 32 46 1019 vento: Nord S 18.5
30 Agosto 2026 13:35 tempo osservato: Sereno Sereno 32 49 1019 vento: Nord S/SO 9.3
30 Agosto 2026 13:15 tempo osservato: Sereno Sereno 32 49 1019 vento: Nord SO 13
30 Agosto 2026 12:55 tempo osservato: Sereno Sereno 31 52 1020 vento: Nord O/SO 11.1
30 Agosto 2026 12:35 tempo osservato: Sereno Sereno 31 52 1020 vento: Nord SO 11.1
30 Agosto 2026 12:15 tempo osservato: Sereno Sereno 31 52 1020 vento: Nord S/SO 7.4
30 Agosto 2026 11:55 tempo osservato: Sereno Sereno 30 55 1019 vento: Nord S/SO 7.4
30 Agosto 2026 11:35 tempo osservato: Sereno Sereno 30 55 1019 vento: Nord S/SO 13
30 Agosto 2026 11:15 tempo osservato: Sereno Sereno 29 54 1019 vento: Nord S/SO 14.8
30 Agosto 2026 10:55 tempo osservato: Sereno Sereno 28 58 1019 vento: Nord S 13
30 Agosto 2026 10:35 tempo osservato: Sereno Sereno 28 58 1019 vento: Nord S/SO 16.7
30 Agosto 2026 10:15 tempo osservato: Sereno Sereno 27 61 1019 vento: Nord S 13
30 Agosto 2026 09:55 tempo osservato: Sereno Sereno 26 65 1019 vento: Nord S/SO 13
30 Agosto 2026 09:35 tempo osservato: Sereno Sereno 25 69 1019 vento: Nord S 16.7
30 Agosto 2026 09:15 tempo osservato: Sereno Sereno 24 73 1019 vento: Nord S 13
30 Agosto 2026 08:55 tempo osservato: Sereno Sereno 22 83 1019 vento: Nord S 11.1
30 Agosto 2026 08:35 tempo osservato: Sereno Sereno 21 88 1019 vento: Nord S/SE 9.3
30 Agosto 2026 08:15 tempo osservato: Sereno Sereno 19 100 1019 vento: Nord S/SE 7.4
30 Agosto 2026 07:55 tempo osservato: Sereno Sereno 18 100 1018 vento: Nord E/SE 7.4
30 Agosto 2026 07:35 tempo osservato: Sereno Sereno 18 100 1018 vento: Nord N 5.5
30 Agosto 2026 07:15 tempo osservato: Sereno Sereno 18 100 1018 vento: Nord N 0
30 Agosto 2026 06:55 tempo osservato: Sereno Sereno 18 100 1018 vento: Nord N 5.5
30 Agosto 2026 06:35 tempo osservato: Sereno Sereno 17 100 1018 vento: Nord N 5.5
30 Agosto 2026 06:15 tempo osservato: Sereno Sereno 16 100 1018 vento: Nord N 5.5
30 Agosto 2026 05:55 tempo osservato: Sereno Sereno 16 100 1018 vento: Nord N 0
30 Agosto 2026 05:35 tempo osservato: Sereno Sereno 16 100 1018 vento: Nord N 0
30 Agosto 2026 05:15 tempo osservato: Sereno Sereno 17 100 1018 vento: Nord N 0
30 Agosto 2026 04:55 tempo osservato: Sereno Sereno 17 100 1018 vento: Nord N 0
30 Agosto 2026 04:35 tempo osservato: Sereno Sereno 17 100 1018 vento: Nord N 0
30 Agosto 2026 04:15 tempo osservato: Sereno Sereno 17 100 1018 vento: Nord N 0
30 Agosto 2026 03:55 tempo osservato: Sereno Sereno 18 93 1018 vento: Nord N 0
30 Agosto 2026 03:35 tempo osservato: Sereno Sereno 18 93 1018 vento: Nord N 0
30 Agosto 2026 03:15 tempo osservato: Sereno Sereno 18 93 1019 vento: Nord N 0
30 Agosto 2026 02:55 tempo osservato: Sereno Sereno 18 93 1019 vento: Nord N 0
30 Agosto 2026 02:35 tempo osservato: Sereno Sereno 18 100 1019 vento: Nord N 0